Time,TemperatureF,DewpointF,PressureIn,WindDirection,WindDirectionDegrees,WindSpeedMPH,WindSpeedGustMPH,Humidity,HourlyPrecipIn,Conditions,Clouds,dailyrainin,SoftwareType,DateUTC
2013-06-15 00:02:00,64.0,60.0,30.04,ESE,116,0.0,1.0,88,0.00,,,0.00,,2013-06-15 05:02:00,
2013-06-15 00:12:00,64.0,61.0,30.06,ESE,116,0.0,0.0,90,0.00,,,0.00,,2013-06-15 05:12:00,
2013-06-15 00:22:00,64.0,61.0,30.06,ENE,69,0.0,0.0,90,0.00,,,0.00,,2013-06-15 05:22:00,
2013-06-15 00:34:00,64.0,61.0,30.06,ENE,69,0.0,0.0,90,0.00,,,0.00,,2013-06-15 05:34:00,
2013-06-15 00:43:00,65.0,62.0,30.06,East,90,0.0,1.0,89,0.00,,,0.00,,2013-06-15 05:43:00,
2013-06-15 00:52:00,64.0,61.0,30.07,East,95,0.0,0.0,90,0.00,,,0.00,,2013-06-15 05:52:00,
2013-06-15 01:02:00,64.0,61.0,30.07,East,95,0.0,0.0,90,0.00,,,0.00,,2013-06-15 06:02:00,
2013-06-15 01:12:00,64.0,61.0,30.07,East,92,0.0,1.0,90,0.00,,,0.00,,2013-06-15 06:12:00,
2013-06-15 01:24:00,64.0,61.0,30.07,East,92,0.0,0.0,89,0.00,,,0.00,,2013-06-15 06:24:00,
2013-06-15 01:33:00,64.0,61.0,30.07,East,92,0.0,0.0,89,0.00,,,0.00,,2013-06-15 06:33:00,
2013-06-15 01:43:00,64.0,61.0,30.07,East,92,0.0,1.0,90,0.00,,,0.00,,2013-06-15 06:43:00,
2013-06-15 01:53:00,64.0,61.0,30.07,East,92,0.0,0.0,90,0.00,,,0.00,,2013-06-15 06:53:00,
2013-06-15 02:01:00,64.0,61.0,30.07,East,92,0.0,0.0,90,0.00,,,0.00,,2013-06-15 07:01:00,
2013-06-15 02:11:00,63.0,60.0,30.07,East,92,0.0,0.0,91,0.00,,,0.00,,2013-06-15 07:11:00,
2013-06-15 02:23:00,63.0,60.0,30.08,NE,42,0.0,1.0,91,0.00,,,0.00,,2013-06-15 07:23:00,
2013-06-15 02:33:00,63.0,60.0,30.08,NE,42,0.0,1.0,91,0.00,,,0.00,,2013-06-15 07:33:00,
2013-06-15 02:43:00,63.0,60.0,30.07,NE,42,0.0,1.0,91,0.00,,,0.00,,2013-06-15 07:43:00,
2013-06-15 02:53:00,63.0,60.0,30.08,NE,42,0.0,1.0,90,0.00,,,0.00,,2013-06-15 07:53:00,
2013-06-15 03:02:00,63.0,60.0,30.08,NE,42,0.0,1.0,90,0.00,,,0.00,,2013-06-15 08:02:00,
2013-06-15 03:11:00,63.0,60.0,30.07,NE,42,0.0,0.0,91,0.00,,,0.00,,2013-06-15 08:11:00,
2013-06-15 03:22:00,63.0,60.0,30.06,NE,42,0.0,0.0,91,0.00,,,0.00,,2013-06-15 08:22:00,
2013-06-15 03:33:00,63.0,60.0,30.06,NE,42,0.0,0.0,91,0.00,,,0.00,,2013-06-15 08:33:00,
2013-06-15 03:42:00,62.0,59.0,30.06,NE,42,0.0,1.0,91,0.00,,,0.00,,2013-06-15 08:42:00,
2013-06-15 03:53:00,62.0,60.0,30.05,NE,42,0.0,1.0,92,0.00,,,0.00,,2013-06-15 08:53:00,
2013-06-15 04:02:00,62.0,60.0,30.05,NE,42,0.0,1.0,92,0.00,,,0.00,,2013-06-15 09:02:00,
2013-06-15 04:12:00,62.0,60.0,30.05,NE,42,0.0,0.0,92,0.00,,,0.00,,2013-06-15 09:12:00,
2013-06-15 04:22:00,62.0,60.0,30.05,NE,42,0.0,0.0,92,0.00,,,0.00,,2013-06-15 09:22:00,
2013-06-15 04:33:00,62.0,60.0,30.05,NE,42,0.0,0.0,92,0.00,,,0.00,,2013-06-15 09:33:00,
2013-06-15 04:43:00,61.0,59.0,30.06,NE,42,0.0,1.0,92,0.00,,,0.00,,2013-06-15 09:43:00,
2013-06-15 04:52:00,61.0,59.0,30.06,NE,42,0.0,0.0,92,0.00,,,0.00,,2013-06-15 09:52:00,
2013-06-15 05:02:00,61.0,59.0,30.06,NE,42,0.0,0.0,92,0.00,,,0.00,,2013-06-15 10:02:00,
2013-06-15 05:11:00,61.0,59.0,30.07,East,94,0.0,1.0,92,0.00,,,0.00,,2013-06-15 10:11:00,
2013-06-15 05:23:00,61.0,59.0,30.08,South,182,0.0,0.0,92,0.00,,,0.00,,2013-06-15 10:23:00,
2013-06-15 05:33:00,61.0,59.0,30.08,South,182,0.0,0.0,92,0.00,,,0.00,,2013-06-15 10:33:00,
2013-06-15 05:44:00,61.0,59.0,30.08,South,182,0.0,1.0,92,0.00,,,0.00,,2013-06-15 10:44:00,
2013-06-15 05:53:00,60.0,58.0,30.08,ENE,74,0.0,3.0,93,0.00,,,0.00,,2013-06-15 10:53:00,
2013-06-15 06:02:00,60.0,58.0,30.08,ENE,74,0.0,3.0,93,0.00,,,0.00,,2013-06-15 11:02:00,
2013-06-15 06:11:00,60.0,58.0,30.09,ENE,74,0.0,1.0,93,0.00,,,0.00,,2013-06-15 11:11:00,
2013-06-15 06:22:00,60.0,58.0,30.09,ESE,120,0.0,1.0,93,0.00,,,0.00,,2013-06-15 11:22:00,
2013-06-15 06:33:00,60.0,58.0,30.09,ESE,120,0.0,1.0,93,0.00,,,0.00,,2013-06-15 11:33:00,
2013-06-15 06:43:00,61.0,59.0,30.09,ESE,118,0.0,1.0,92,0.00,,,0.00,,2013-06-15 11:43:00,
2013-06-15 06:53:00,61.0,59.0,30.10,NE,49,0.0,1.0,92,0.00,,,0.00,,2013-06-15 11:53:00,
2013-06-15 07:01:00,61.0,59.0,30.10,NE,49,0.0,1.0,92,0.00,,,0.00,,2013-06-15 12:01:00,
2013-06-15 07:12:00,62.0,59.0,30.10,WNW,300,0.0,1.0,91,0.00,,,0.00,,2013-06-15 12:12:00,
2013-06-15 07:22:00,64.0,61.0,30.10,WNW,300,0.0,0.0,89,0.00,,,0.00,,2013-06-15 12:22:00,
2013-06-15 07:33:00,64.0,61.0,30.10,WNW,300,0.0,0.0,89,0.00,,,0.00,,2013-06-15 12:33:00,
2013-06-15 07:43:00,66.0,62.0,30.11,WNW,300,0.0,0.0,86,0.00,,,0.00,,2013-06-15 12:43:00,
2013-06-15 07:52:00,68.0,63.0,30.10,ENE,77,0.0,1.0,84,0.00,,,0.00,,2013-06-15 12:52:00,
2013-06-15 08:02:00,68.0,63.0,30.10,ENE,77,0.0,1.0,84,0.00,,,0.00,,2013-06-15 13:02:00,
2013-06-15 08:11:00,70.0,64.0,30.11,NE,52,0.0,1.0,80,0.00,,,0.00,,2013-06-15 13:11:00,
2013-06-15 08:22:00,72.0,63.0,30.12,NNW,348,0.0,2.0,73,0.00,,,0.00,,2013-06-15 13:22:00,
2013-06-15 08:32:00,72.0,63.0,30.12,NNW,348,0.0,2.0,73,0.00,,,0.00,,2013-06-15 13:32:00,
2013-06-15 08:43:00,72.0,62.0,30.12,NNW,348,0.0,1.0,71,0.00,,,0.00,,2013-06-15 13:43:00,
2013-06-15 08:53:00,73.0,63.0,30.14,NE,35,0.0,3.0,70,0.00,,,0.00,,2013-06-15 13:53:00,
2013-06-15 09:01:00,73.0,63.0,30.14,NE,35,0.0,3.0,70,0.00,,,0.00,,2013-06-15 14:01:00,
2013-06-15 09:12:00,75.0,63.0,30.14,NW,305,0.0,3.0,67,0.00,,,0.00,,2013-06-15 14:12:00,
2013-06-15 09:22:00,76.0,62.0,30.13,WNW,300,0.0,2.0,62,0.00,,,0.00,,2013-06-15 14:22:00,
2013-06-15 09:34:00,76.0,62.0,30.13,WNW,300,0.0,2.0,62,0.00,,,0.00,,2013-06-15 14:34:00,
2013-06-15 09:43:00,78.0,64.0,30.11,SSE,158,1.0,4.0,62,0.00,,,0.00,,2013-06-15 14:43:00,
2013-06-15 09:53:00,78.0,62.0,30.11,East,89,0.0,3.0,58,0.00,,,0.00,,2013-06-15 14:53:00,
2013-06-15 10:02:00,78.0,62.0,30.11,East,89,0.0,3.0,58,0.00,,,0.00,,2013-06-15 15:02:00,
2013-06-15 10:11:00,78.0,60.0,30.11,SSW,205,0.0,4.0,54,0.00,,,0.00,,2013-06-15 15:11:00,
2013-06-15 10:22:00,80.0,61.0,30.10,South,173,0.0,2.0,53,0.00,,,0.00,,2013-06-15 15:22:00,
2013-06-15 10:33:00,80.0,61.0,30.10,South,173,0.0,2.0,53,0.00,,,0.00,,2013-06-15 15:33:00,
2013-06-15 10:43:00,80.0,63.0,30.08,SW,219,1.0,7.0,57,0.00,,,0.00,,2013-06-15 15:43:00,
2013-06-15 10:53:00,80.0,63.0,30.07,SSW,207,2.0,6.0,56,0.00,,,0.00,,2013-06-15 15:53:00,
2013-06-15 11:01:00,80.0,63.0,30.07,SSW,207,2.0,6.0,56,0.00,,,0.00,,2013-06-15 16:01:00,
2013-06-15 11:11:00,81.0,64.0,30.06,South,175,1.0,7.0,57,0.00,,,0.00,,2013-06-15 16:11:00,
2013-06-15 11:22:00,81.0,63.0,30.06,SSE,148,3.0,8.0,54,0.00,,,0.00,,2013-06-15 16:22:00,
2013-06-15 11:33:00,81.0,63.0,30.06,SSE,148,3.0,8.0,54,0.00,,,0.00,,2013-06-15 16:33:00,
2013-06-15 11:43:00,82.0,63.0,30.05,South,175,3.0,8.0,53,0.00,,,0.00,,2013-06-15 16:43:00,
2013-06-15 11:53:00,82.0,62.0,30.06,SSW,198,2.0,11.0,51,0.00,,,0.00,,2013-06-15 16:53:00,
2013-06-15 12:02:00,82.0,62.0,30.06,SSW,198,2.0,11.0,51,0.00,,,0.00,,2013-06-15 17:02:00,
2013-06-15 12:12:00,83.0,59.0,30.06,SSW,196,4.0,10.0,45,0.00,,,0.00,,2013-06-15 17:12:00,
2013-06-15 12:21:00,83.0,62.0,30.06,South,180,2.0,7.0,49,0.00,,,0.00,,2013-06-15 17:21:00,
2013-06-15 12:32:00,83.0,62.0,30.06,South,180,2.0,7.0,49,0.00,,,0.00,,2013-06-15 17:32:00,
2013-06-15 12:43:00,84.0,57.0,30.06,SW,214,2.0,6.0,40,0.00,,,0.00,,2013-06-15 17:43:00,
2013-06-15 12:52:00,85.0,59.0,30.06,NW,306,1.0,6.0,41,0.00,,,0.00,,2013-06-15 17:52:00,
2013-06-15 13:01:00,85.0,59.0,30.06,NW,306,1.0,6.0,41,0.00,,,0.00,,2013-06-15 18:01:00,
2013-06-15 13:12:00,84.0,62.0,30.06,South,173,3.0,7.0,47,0.00,,,0.00,,2013-06-15 18:12:00,
2013-06-15 13:22:00,84.0,62.0,30.06,South,173,3.0,7.0,47,0.00,,,0.00,,2013-06-15 18:22:00,
2013-06-15 13:32:00,85.0,64.0,30.06,SSW,210,0.0,6.0,49,0.00,,,0.00,,2013-06-15 18:32:00,
2013-06-15 13:43:00,86.0,65.0,30.06,NW,310,2.0,6.0,50,0.00,,,0.00,,2013-06-15 18:43:00,
2013-06-15 13:53:00,86.0,65.0,30.06,NW,310,2.0,6.0,50,0.00,,,0.00,,2013-06-15 18:53:00,
2013-06-15 14:01:00,86.0,64.0,30.05,SSW,192,2.0,4.0,48,0.00,,,0.00,,2013-06-15 19:01:00,
2013-06-15 14:11:00,86.0,66.0,30.04,WNW,289,2.0,5.0,52,0.00,,,0.00,,2013-06-15 19:11:00,
2013-06-15 14:22:00,86.0,66.0,30.04,WNW,289,2.0,5.0,52,0.00,,,0.00,,2013-06-15 19:22:00,
2013-06-15 14:33:00,87.0,64.0,30.04,WNW,284,2.0,7.0,47,0.00,,,0.00,,2013-06-15 19:33:00,
2013-06-15 14:43:00,88.0,60.0,30.04,ESE,109,0.0,5.0,39,0.00,,,0.00,,2013-06-15 19:43:00,
2013-06-15 14:52:00,88.0,60.0,30.04,ESE,109,0.0,5.0,39,0.00,,,0.00,,2013-06-15 19:52:00,
2013-06-15 15:02:00,88.0,60.0,30.04,SE,140,2.0,7.0,39,0.00,,,0.00,,2013-06-15 20:02:00,
2013-06-15 15:11:00,87.0,62.0,30.03,SSE,155,1.0,5.0,44,0.00,,,0.00,,2013-06-15 20:11:00,
2013-06-15 15:22:00,87.0,62.0,30.03,SSE,155,1.0,5.0,44,0.00,,,0.00,,2013-06-15 20:22:00,
2013-06-15 15:33:00,87.0,64.0,30.03,SSW,193,3.0,6.0,46,0.00,,,0.00,,2013-06-15 20:33:00,
2013-06-15 15:43:00,86.0,62.0,30.03,SSE,168,4.0,7.0,45,0.00,,,0.00,,2013-06-15 20:43:00,
2013-06-15 15:53:00,86.0,62.0,30.03,SSE,168,4.0,7.0,45,0.00,,,0.00,,2013-06-15 20:53:00,
2013-06-15 16:01:00,86.0,65.0,30.03,SSW,203,3.0,7.0,49,0.00,,,0.00,,2013-06-15 21:01:00,
2013-06-15 16:12:00,87.0,64.0,30.03,SSW,211,1.0,5.0,46,0.00,,,0.00,,2013-06-15 21:12:00,
2013-06-15 16:22:00,87.0,64.0,30.03,SSW,211,1.0,5.0,46,0.00,,,0.00,,2013-06-15 21:22:00,
2013-06-15 16:33:00,87.0,65.0,30.03,SSE,151,1.0,4.0,48,0.00,,,0.00,,2013-06-15 21:33:00,
2013-06-15 16:42:00,88.0,66.0,30.02,SSW,208,2.0,6.0,49,0.00,,,0.00,,2013-06-15 21:42:00,
2013-06-15 16:52:00,88.0,66.0,30.02,SSW,208,2.0,6.0,49,0.00,,,0.00,,2013-06-15 21:52:00,
2013-06-15 17:01:00,87.0,65.0,30.02,SSW,196,2.0,7.0,49,0.00,,,0.00,,2013-06-15 22:01:00,
2013-06-15 17:11:00,87.0,66.0,30.02,NNW,327,1.0,7.0,50,0.00,,,0.00,,2013-06-15 22:11:00,
2013-06-15 17:22:00,87.0,66.0,30.02,NNW,327,1.0,7.0,50,0.00,,,0.00,,2013-06-15 22:22:00,
2013-06-15 17:33:00,87.0,66.0,30.01,SSW,211,2.0,7.0,50,0.00,,,0.00,,2013-06-15 22:33:00,
2013-06-15 17:42:00,86.0,65.0,30.00,SSE,166,2.0,5.0,50,0.00,,,0.00,,2013-06-15 22:42:00,
2013-06-15 17:53:00,86.0,65.0,30.00,SSE,166,2.0,5.0,50,0.00,,,0.00,,2013-06-15 22:53:00,
2013-06-15 18:02:00,86.0,66.0,30.01,South,180,1.0,6.0,52,0.00,,,0.00,,2013-06-15 23:02:00,
2013-06-15 18:12:00,85.0,66.0,30.01,SSW,205,1.0,7.0,53,0.00,,,0.00,,2013-06-15 23:12:00,
2013-06-15 18:22:00,85.0,66.0,30.01,SSW,205,1.0,7.0,53,0.00,,,0.00,,2013-06-15 23:22:00,
2013-06-15 18:33:00,85.0,66.0,30.01,SSW,213,0.0,5.0,53,0.00,,,0.00,,2013-06-15 23:33:00,
2013-06-15 18:42:00,85.0,65.0,30.02,SSW,201,3.0,6.0,52,0.00,,,0.00,,2013-06-15 23:42:00,
2013-06-15 18:53:00,85.0,65.0,30.02,SSW,201,3.0,6.0,52,0.00,,,0.00,,2013-06-15 23:53:00,
2013-06-15 19:01:00,84.0,67.0,30.02,SW,221,1.0,5.0,56,0.00,,,0.00,,2013-06-16 00:01:00,
2013-06-15 19:11:00,83.0,66.0,30.02,South,169,2.0,6.0,57,0.00,,,0.00,,2013-06-16 00:11:00,
2013-06-15 19:22:00,83.0,66.0,30.02,South,169,2.0,6.0,57,0.00,,,0.00,,2013-06-16 00:22:00,
2013-06-15 19:34:00,82.0,66.0,30.03,SSW,195,0.0,3.0,58,0.00,,,0.00,,2013-06-16 00:34:00,
2013-06-15 19:43:00,82.0,67.0,30.03,SSE,161,0.0,1.0,61,0.00,,,0.00,,2013-06-16 00:43:00,
2013-06-15 19:52:00,82.0,67.0,30.03,SSE,161,0.0,1.0,61,0.00,,,0.00,,2013-06-16 00:52:00,
2013-06-15 20:01:00,81.0,67.0,30.02,SE,141,0.0,1.0,63,0.00,,,0.00,,2013-06-16 01:01:00,
2013-06-15 20:11:00,80.0,67.0,30.01,South,176,0.0,2.0,65,0.00,,,0.00,,2013-06-16 01:11:00,
2013-06-15 20:22:00,80.0,67.0,30.01,South,176,0.0,2.0,65,0.00,,,0.00,,2013-06-16 01:22:00,
2013-06-15 20:33:00,79.0,67.0,30.01,South,176,0.0,1.0,67,0.00,,,0.00,,2013-06-16 01:33:00,
2013-06-15 20:42:00,78.0,67.0,30.00,South,176,0.0,2.0,68,0.00,,,0.00,,2013-06-16 01:42:00,
2013-06-15 20:53:00,78.0,67.0,30.00,South,176,0.0,2.0,68,0.00,,,0.00,,2013-06-16 01:53:00,
2013-06-15 21:02:00,78.0,67.0,30.01,South,184,0.0,2.0,69,0.00,,,0.00,,2013-06-16 02:02:00,
2013-06-15 21:12:00,77.0,67.0,30.00,SSE,153,0.0,1.0,71,0.00,,,0.00,,2013-06-16 02:12:00,
2013-06-15 21:22:00,77.0,67.0,30.00,SSE,153,0.0,1.0,71,0.00,,,0.00,,2013-06-16 02:22:00,
2013-06-15 21:33:00,76.0,66.0,30.01,SSE,165,0.0,1.0,72,0.00,,,0.00,,2013-06-16 02:33:00,
2013-06-15 21:43:00,76.0,67.0,30.01,East,88,0.0,2.0,73,0.00,,,0.00,,2013-06-16 02:43:00,
2013-06-15 21:53:00,76.0,67.0,30.01,East,88,0.0,2.0,73,0.00,,,0.00,,2013-06-16 02:53:00,
2013-06-15 22:02:00,75.0,67.0,30.02,East,88,0.0,0.0,75,0.00,,,0.00,,2013-06-16 03:02:00,
2013-06-15 22:12:00,75.0,67.0,30.02,East,88,0.0,0.0,75,0.00,,,0.00,,2013-06-16 03:12:00,
2013-06-15 22:22:00,75.0,67.0,30.02,East,88,0.0,0.0,75,0.00,,,0.00,,2013-06-16 03:22:00,
2013-06-15 22:33:00,75.0,67.0,30.02,East,88,0.0,0.0,76,0.00,,,0.00,,2013-06-16 03:33:00,
2013-06-15 22:43:00,75.0,67.0,30.02,East,88,0.0,0.0,77,0.00,,,0.00,,2013-06-16 03:43:00,
2013-06-15 22:53:00,75.0,67.0,30.02,East,88,0.0,0.0,77,0.00,,,0.00,,2013-06-16 03:53:00,
2013-06-15 23:02:00,75.0,67.0,30.02,East,88,0.0,0.0,77,0.00,,,0.00,,2013-06-16 04:02:00,
2013-06-15 23:12:00,74.0,66.0,30.02,ESE,112,0.0,1.0,77,0.00,,,0.00,,2013-06-16 04:12:00,
2013-06-15 23:23:00,74.0,66.0,30.02,ESE,112,0.0,1.0,77,0.00,,,0.00,,2013-06-16 04:23:00,
2013-06-15 23:33:00,75.0,67.0,30.02,ESE,112,0.0,0.0,77,0.00,,,0.00,,2013-06-16 04:33:00,
2013-06-15 23:42:00,74.0,67.0,30.02,ESE,120,0.0,0.0,78,0.00,,,0.00,,2013-06-16 04:42:00,
2013-06-15 23:53:00,74.0,67.0,30.02,ESE,120,0.0,0.0,78,0.00,,,0.00,,2013-06-16 04:53:00,